Seville, Spain

4:14 AM CET on December 09, 2016 (GMT +0100)
San Pablo

Weather History for LEZL - October, 2012

Change the Weather History Date:

Monday, October 15, 2012

  Actual Average Record
Temperature  
Mean Temperature 63 °F -  
Max Temperature 73 °F 71 °F 86 °F (2011)
Min Temperature 53 °F 52 °F 51 °F (2016)
Degree Days  
Heating Degree Days 2    
Growing Degree Days 13 (Base 50)    
Moisture  
Dew Point 44 °F    
Average Humidity 49    
Maximum Humidity 83    
Minimum Humidity 31    
Precipitation  
Precipitation 0.00 in - - ()
Sea Level Pressure  
Sea Level Pressure 29.92 in    
Wind  
Wind Speed 5 mph ()    
Max Wind Speed 12 mph    
Max Gust Speed -    
Visibility 6.2 miles    
Events      
Averages and records for this station are not official NWS values.
T = Trace of Precipitation, MM = Missing Value Source: Averaged Metar Reports

Daily Weather History Graph

Daily Weather History Graph

Search for Another Location

Airport or City:

Trip Planner

Search our weather history database for the weather conditions in past years. The results will help you decide how hot, cold, wet, or windy it might be!

Date:

Astronomy

Oct. 15, 2012 Rise Set
Actual Time 8:31 AM CEST 7:46 PM CEST
Civil Twilight 8:05 AM CEST 8:12 PM CEST
Nautical Twilight 7:35 AM CEST 8:42 PM CEST
Astronomical Twilight 7:04 AM CEST 9:12 PM CEST
Moon 8:24 AM CEST (10/15) 7:37 PM CEST (10/15)
Length of Visible Light 12h 06m
Length of Day
11h 14m
Waning Crescent, 0% of the Moon is Illuminated
Oct 15
Waning Crescent
Oct 15
New
Oct 22
First Quarter
Oct 29
Full
Nov 7
Last Quarter

Hourly Weather History & Observations

Time (CEST) Temp. Dew Point Humidity Pressure Visibility Wind Dir Wind Speed Gust Speed Precip Events Conditions
12:00 AM 66.2 °F 60.8 °F 83% 29.83 in - SSW 9.2 mph - N/A   Clear
12:30 AM 66.2 °F 60.8 °F 83% 29.83 in - West 8.1 mph - N/A   Clear
1:00 AM 66.2 °F 59.0 °F 78% 29.86 in 6.2 mi West 9.2 mph - N/A   Partly Cloudy
1:30 AM 66.2 °F 59.0 °F 78% 29.86 in 6.2 mi West 11.5 mph - N/A   Scattered Clouds
2:00 AM 64.4 °F 55.4 °F 73% 29.83 in 6.2 mi NW 6.9 mph - N/A   Scattered Clouds
2:30 AM 64.4 °F 51.8 °F 64% 29.83 in 6.2 mi WNW 5.8 mph - N/A   Scattered Clouds
4:30 AM 59.0 °F 46.4 °F 63% 29.86 in - NW 6.9 mph - N/A   Clear
5:00 AM 59.0 °F 46.4 °F 63% 29.86 in - Variable 2.3 mph - N/A   Clear
5:30 AM 57.2 °F 46.4 °F 67% 29.86 in - NW 6.9 mph - N/A   Clear
6:00 AM 57.2 °F 44.6 °F 63% 29.86 in - NW 3.5 mph - N/A   Clear
6:30 AM 59.0 °F 42.8 °F 55% 29.89 in - NNW 8.1 mph - N/A   Clear
7:00 AM 59.0 °F 42.8 °F 55% 29.89 in - NNW 10.4 mph - N/A   Clear
7:30 AM 57.2 °F 42.8 °F 59% 29.89 in - North 1.2 mph - N/A   Clear
8:00 AM 57.2 °F 41.0 °F 55% 29.89 in - NNW 5.8 mph - N/A   Clear
8:30 AM 55.4 °F 41.0 °F 58% 29.92 in - Variable 1.2 mph - N/A   Clear
9:00 AM 53.6 °F 42.8 °F 67% 29.92 in - Calm Calm - N/A   Clear
9:30 AM 57.2 °F 42.8 °F 59% 29.92 in - Variable 1.2 mph - N/A   Clear
10:00 AM 59.0 °F 41.0 °F 51% 29.95 in - North 1.2 mph - N/A   Clear
10:30 AM 59.0 °F 42.8 °F 55% 29.95 in - NNE 4.6 mph - N/A   Clear
11:00 AM 60.8 °F 41.0 °F 48% 29.95 in - NNW 3.5 mph - N/A   Clear
11:30 AM 60.8 °F 41.0 °F 48% 29.98 in - NW 4.6 mph - N/A   Clear
12:00 PM 62.6 °F 41.0 °F 45% 29.95 in - North 5.8 mph - N/A   Clear
12:30 PM 64.4 °F 41.0 °F 42% 29.98 in - North 8.1 mph - N/A   Clear
1:00 PM 64.4 °F 41.0 °F 42% 29.95 in - NNE 5.8 mph - N/A   Clear
1:30 PM 66.2 °F 42.8 °F 43% 29.95 in - NE 5.8 mph - N/A   Clear
2:00 PM 68.0 °F 42.8 °F 40% 29.95 in - NNE 6.9 mph - N/A   Clear
2:30 PM 68.0 °F 42.8 °F 40% 29.95 in - North 5.8 mph - N/A   Clear
3:00 PM 69.8 °F 42.8 °F 38% 29.95 in - NE 6.9 mph - N/A   Clear
3:30 PM 71.6 °F 42.8 °F 35% 29.92 in - ENE 2.3 mph - N/A   Clear
4:00 PM 71.6 °F 41.0 °F 33% 29.92 in - NNE 6.9 mph - N/A   Clear
4:30 PM 71.6 °F 41.0 °F 33% 29.92 in - ENE 4.6 mph - N/A   Clear
5:00 PM 73.4 °F 41.0 °F 31% 29.92 in - Variable 2.3 mph - N/A   Clear
5:30 PM 73.4 °F 41.0 °F 31% 29.92 in - ENE 1.2 mph - N/A   Clear
6:00 PM 73.4 °F 41.0 °F 31% 29.92 in - SE 3.5 mph - N/A   Clear
6:30 PM 73.4 °F 41.0 °F 31% 29.95 in - Variable 2.3 mph - N/A   Clear
7:00 PM 73.4 °F 41.0 °F 31% 29.95 in - NE 1.2 mph - N/A   Clear
8:00 PM 71.6 °F 39.2 °F 31% 29.95 in - North 2.3 mph - N/A   Clear
8:30 PM 69.8 °F 39.2 °F 33% 29.98 in - Variable 2.3 mph - N/A   Clear
9:00 PM 68.0 °F 37.4 °F 33% 29.98 in - NNE 2.3 mph - N/A   Clear
9:30 PM 68.0 °F 37.4 °F 33% 29.98 in - NNE 1.2 mph - N/A   Clear
10:00 PM 62.6 °F 42.8 °F 48% 30.01 in - Variable 1.2 mph - N/A   Clear
10:30 PM 68.0 °F 37.4 °F 33% 30.01 in - Variable 1.2 mph - N/A   Clear
11:00 PM 66.2 °F 37.4 °F 35% 30.01 in - NNW 3.5 mph - N/A   Clear
11:30 PM 62.6 °F 39.2 °F 42% 30.04 in - Variable 1.2 mph - N/A   Clear